Temperature
23 25 26 26 27 26 25 23 23 23 24 24 24 24 24 25 25 24 24 24 24 24 23 23 23 23 22 22 22 21 21 20 20 20 19 19 18 18 18 18 17 17 17 17
24 26 26 26 27 27 26 25 25 25 24 24 25 25 25 25 25 24 24 24 24 24 23 23 23 23 22 22 22 21 21 20 20 20 19 19 18 18 18 17 17 17 17 16
22 24 25 25 25 26 26 25 25 24 24 23 23 23 24 25 25 25 24 24 24 24 24 23 23 23 23 22 22 21 21 20 20 19 19 19 18 18 18 17 17 17 16 16
20 23 24 23 24 26 26 26 25 24 24 23 23 24 25 25 25 25 24 24 24 24 23 23 23 23 22 22 21 21 21 20 20 19 19 19 18 18 17 17 17 16 16 16
18 21 22 24 25 25 25 24 24 24 23 23 24 24 23 25 25 25 25 25 25 24 24 23 23 22 22 22 21 21 21 20 20 19 19 19 18 18 17 17 16 16 16 15
18 21 22 22 24 26 25 23 23 23 23 23 23 21 22 24 25 25 25 25 25 24 24 23 23 22 22 21 21 21 21 20 20 19 19 19 18 18 17 17 17 16 15 15
18 20 20 22 24 25 23 22 23 23 23 23 23 23 24 24 24 25 25 25 25 24 24 23 23 22 22 21 21 21 20 20 20 19 19 18 18 18 17 17 16 16 15 15
17 19 20 22 23 22 21 23 24 24 24 24 24 24 24 24 24 24 24 24 24 24 23 23 22 22 22 22 21 21 20 19 19 19 18 18 17 17 17 16 16 15 15 15
18 18 20 22 23 24 24 23 23 24 24 24 24 23 23 23 23 23 23 23 23 23 23 22 22 22 22 21 21 20 20 19 19 19 18 18 17 17 16 16 16 15 15 15
18 19 20 22 23 23 24 24 24 24 24 24 24 23 23 23 22 22 23 23 22 22 22 22 21 21 21 21 20 20 19 19 19 18 18 17 17 17 16 16 16 16 15 15
17 18 19 21 22 22 23 23 24 24 24 24 24 23 23 22 22 22 22 22 22 22 22 21 21 21 20 20 20 20 19 19 18 18 18 17 17 17 16 16 16 16 16 15
16 17 17 19 21 21 22 22 23 23 22 23 23 23 22 22 22 21 21 21 21 21 21 21 20 20 20 20 19 19 19 18 18 18 17 17 17 16 16 16 15 15 15 15
19 19 20 20 20 21 21 21 22 22 22 22 22 22 22 21 21 21 21 20 20 20 20 20 19 19 19 19 19 19 18 18 18 17 17 17 16 16 16 15 15 15 15 14
19 19 19 19 20 20 20 21 21 21 21 21 21 21 21 21 20 20 20 20 20 19 19 19 19 18 18 18 18 18 18 18 18 17 17 17 16 16 16 15 15 15 14 14
19 19 19 19 19 20 20 20 20 20 20 20 20 20 20 20 20 19 19 19 19 19 18 18 18 18 18 18 18 17 17 17 17 17 16 16 16 16 15 15 15 15 14 14
18 18 18 18 18 19 19 19 19 19 19 19 19 19 19 19 19 19 19 18 18 18 18 18 18 17 17 17 17 17 17 17 17 16 16 16 16 15 15 15 15 14 14 14
17 17 17 17 17 18 18 18 19 18 18 18 18 18 18 18 18 18 18 18 18 18 17 17 17 17 17 17 17 17 16 16 16 16 15 15 15 15 15 15 14 14 14 14
17 17 17 17 17 17 17 18 18 18 18 18 17 17 17 18 18 17 17 17 17 17 17 17 17 16 16 16 16 16 16 16 15 15 15 15 15 15 15 14 14 14 14 14
16 17 17 17 17 17 17 17 17 17 17 17 17 17 17 17 17 17 17 17 17 17 16 16 16 16 16 16 16 16 15 15 15 15 14 14 14 14 14 14 14 14 14 13
16 16 16 16 17 16 16 16 16 16 16 16 16 16 16 16 16 16 16 16 16 16 16 16 16 16 16 15 15 15 15 15 15 14 14 14 14 14 14 14 14 13 13 13
15 15 16 16 16 16 16 16 16 16 15 16 16 16 15 15 15 15 15 15 15 15 15 15 15 15 15 15 15 15 15 14 14 14 14 14 14 14 14 13 13 13 13 13
14 15 15 15 15 15 15 15 15 15 15 15 15 15 15 15 15 15 15 15 15 15 15 15 15 15 15 15 14 14 14 14 14 14 14 14 14 13 13 13 13 13 13 12
14 14 14 14 14 14 14 14 14 14 14 14 14 14 14 14 14 14 14 14 14 14 14 14 14 14 14 14 14 14 14 14 13 13 13 14 14 13 13 13 13 12 12 12
14 14 14 13 13 13 13 14 14 14 14 14 14 14 14 14 14 14 14 14 14 14 14 14 14 14 14 14 13 13 13 13 13 13 13 13 13 13 13 13 13 12 12 12
13 13 13 13 13 13 13 13 13 13 13 13 13 13 13 13 13 13 13 13 13 13 13 13 13 13 13 13 13 13 13 13 13 13 13 13 13 13 12 12 12 12 12 11
12 13 13 13 13 13 13 13 13 13 13 13 13 13 13 13 13 13 13 13 13 13 13 13 13 13 13 13 13 13 13 13 12 12 12 12 12 12 12 12 11 11 11 11
12 12 12 12 12 12 12 12 12 12 12 12 12 12 12 12 12 12 12 12 13 12 12 12 12 12 12 12 12 12 12 12 12 12 12 12 12 12 11 11 11 11 11 11
Wind_Speed
7 7 5 6 8 7 7 9 9 10 10 11 13 12 12 11 12 13 12 12 13 12 11 11 11 10 10 10 9 9 8 7 7 6 6 6 5 5 4 4 4 4 4 3
1 1 2 3 6 8 8 7 6 7 7 7 8 7 9 11 13 14 13 14 13 12 12 12 12 12 11 10 9 9 9 7 6 6 6 6 6 5 5 4 4 4 4 4
2 2 1 4 6 7 6 6 9 8 7 5 7 9 11 12 12 13 13 13 14 13 12 12 11 11 12 11 10 9 9 8 7 7 7 7 7 6 5 5 4 4 4 4
3 3 4 8 5 5 7 5 6 8 7 10 10 8 7 9 12 13 13 13 13 12 11 10 9 10 10 10 10 10 9 9 8 8 7 7 6 6 5 5 5 4 3 4
4 3 4 6 3 2 5 1 3 9 9 8 8 8 3 5 9 12 13 12 11 11 11 11 11 11 10 10 10 10 10 10 9 9 8 8 7 6 5 5 4 3 3 4
4 4 5 6 6 1 6 0 2 7 11 10 9 6 5 6 7 8 9 10 10 10 9 10 9 10 10 9 9 9 10 9 9 9 9 9 8 6 5 5 5 5 4 3
4 3 5 6 5 3 5 6 4 6 9 9 7 8 8 7 6 7 8 8 10 10 10 9 9 10 10 9 10 10 8 8 8 9 9 8 7 6 6 5 6 5 5 3
5 3 6 5 2 4 6 5 5 6 7 7 6 6 7 8 7 7 8 8 10 10 8 7 9 10 9 8 7 7 8 8 8 8 8 7 7 6 6 6 6 5 4 3
6 6 6 2 2 4 6 5 4 5 6 9 9 7 7 7 7 6 6 7 8 9 9 7 7 9 9 7 7 8 8 8 8 8 7 7 8 8 6 6 5 5 5 4
2 1 1 3 4 4 3 5 6 7 8 9 9 8 8 7 7 6 5 5 7 9 9 8 7 7 7 7 8 8 8 8 7 8 7 7 6 7 7 7 7 6 6 5
2 0 4 5 4 4 4 6 8 8 7 8 10 8 7 7 6 6 5 5 6 8 8 8 7 6 6 7 8 8 7 7 6 6 7 6 6 5 7 7 8 8 7 7
4 4 3 1 1 4 6 5 8 9 8 7 8 8 7 6 5 5 5 5 5 6 6 6 6 6 5 6 8 8 7 6 6 5 5 5 5 3 2 3 5 8 9 8
4 3 3 2 4 5 5 5 7 8 9 7 6 7 7 5 4 5 6 5 6 6 6 6 5 5 5 6 7 7 7 7 5 5 5 6 6 6 4 2 1 3 7 9
2 4 5 4 4 5 6 6 7 7 7 7 6 6 6 5 4 5 5 5 6 6 5 5 5 4 4 5 6 6 6 7 6 6 6 6 6 6 6 5 4 3 4 7
3 4 4 4 5 6 6 7 8 6 6 5 5 6 6 5 4 4 4 4 5 5 4 5 4 4 4 5 6 6 6 5 5 5 5 5 5 6 5 6 5 4 2 3
3 5 6 7 6 5 5 6 6 4 4 4 4 4 4 5 4 3 3 5 6 4 4 4 4 4 4 6 6 5 5 6 6 5 5 5 5 5 6 6 5 5 5 5
3 3 4 4 3 3 3 3 4 3 3 3 3 3 5 5 4 3 2 3 4 4 3 4 4 4 4 5 5 4 4 5 6 5 5 5 5 6 6 6 6 6 6 7
2 3 4 4 4 3 3 3 4 4 3 3 3 3 4 3 3 2 2 3 3 2 2 4 4 4 4 5 5 4 4 4 5 5 5 5 5 5 5 6 6 7 5 5
3 3 3 3 3 3 3 3 2 2 2 2 3 2 2 1 2 2 2 3 3 2 3 3 3 3 3 4 4 3 3 4 4 4 4 5 5 5 5 6 6 6 5 5
2 2 2 2 2 3 2 2 2 2 1 1 2 2 1 1 1 2 2 2 3 3 4 3 3 3 3 3 3 3 3 4 4 4 4 4 4 4 5 5 5 5 5 5
1 1 2 2 2 2 2 2 2 1 1 2 2 2 2 2 1 2 2 1 3 2 2 3 3 3 3 4 4 3 3 4 4 4 4 5 4 4 4 4 5 5 5 5
1 1 1 1 1 1 1 1 2 1 1 1 2 2 1 1 1 1 2 3 3 2 1 2 2 4 5 5 4 4 4 4 4 4 4 4 4 4 4 4 4 4 4 5
0 0 0 1 1 1 0 0 1 1 2 2 3 4 3 3 3 2 2 2 2 3 2 2 3 4 5 4 3 4 4 4 4 4 4 4 4 4 4 4 4 4 5 5
0 1 1 1 2 2 1 2 1 1 2 2 2 3 3 2 2 2 2 2 2 2 2 3 4 4 3 2 3 3 3 3 3 3 3 3 3 3 3 3 3 3 4 4
0 0 1 1 1 1 2 2 1 0 1 1 1 2 2 3 3 2 2 2 2 2 1 2 3 3 2 1 2 2 2 3 3 3 3 3 3 3 3 3 3 4 4 4
0 0 0 1 2 2 1 1 1 2 1 1 1 1 1 1 2 2 2 2 2 2 1 1 1 1 1 1 2 2 2 2 2 3 3 3 3 4 4 4 4 3 3 3
1 1 1 1 1 0 0 1 1 2 2 2 2 2 2 2 2 2 2 2 2 1 1 1 2 2 2 2 2 2 1 1 2 2 3 3 3 3 3 4 3 3 3 3
Wind_Direction
197 208 198 213 216 192 174 179 180 205 198 201 188 177 170 166 156 153 158 164 164 163 164 166 166 167 169 171 170 167 165 170 174 166 157 149 145 148 146 140 135 130 122 113
209 232 221 249 227 200 192 180 178 172 215 211 177 162 161 161 157 160 166 166 163 163 162 167 173 173 171 172 171 164 166 171 168 159 156 155 155 151 143 139 128 121 121 114
221 283 63 258 218 194 187 170 155 176 210 161 152 168 171 169 165 167 170 165 163 166 167 170 177 177 174 173 166 164 168 168 168 165 163 165 160 150 149 145 128 121 123 116
130 88 203 244 247 177 164 182 163 165 163 160 164 167 163 161 165 168 169 166 165 165 165 166 173 176 170 163 164 168 169 171 170 166 166 164 158 158 157 144 136 128 139 136
120 149 256 293 300 169 148 228 150 144 147 146 125 102 107 172 173 173 171 167 167 167 164 163 169 169 162 164 167 169 174 175 174 171 167 163 165 168 159 141 136 131 131 136
127 147 206 245 276 214 106 326 283 143 150 147 126 137 205 197 175 167 162 158 155 154 148 155 163 159 158 164 169 179 184 180 174 171 167 169 172 167 154 150 149 147 150 151
146 177 243 252 277 77 131 217 236 157 155 152 157 180 184 168 166 157 150 146 142 143 151 160 157 155 162 170 183 186 178 171 168 168 169 168 165 158 150 151 148 150 152 155
143 167 241 274 65 142 196 195 164 143 152 143 136 133 133 133 131 139 139 141 141 142 147 150 152 154 163 179 182 167 166 168 166 165 165 164 159 159 158 156 155 158 157 161
174 204 235 268 175 178 149 144 147 131 132 132 125 121 122 117 111 116 130 147 146 143 143 147 156 160 167 177 159 154 157 162 163 162 162 162 168 169 164 164 168 176 175 182
90 309 356 35 58 68 111 130 128 122 126 124 121 124 123 121 118 121 123 138 143 141 146 157 166 169 173 164 155 152 157 160 162 165 170 171 175 176 176 179 181 185 188 193
106 244 41 27 34 55 56 92 102 101 105 117 120 120 125 129 131 137 133 133 142 146 156 167 166 164 164 160 155 158 162 162 164 167 168 171 176 186 190 195 193 191 196 191
194 218 151 211 338 82 83 95 107 104 90 96 115 121 120 130 134 134 134 134 139 140 143 153 157 161 162 161 160 161 166 168 169 168 170 171 173 173 198 196 201 202 195 187
185 183 137 122 64 72 82 99 110 111 117 117 113 121 123 127 136 138 137 140 147 149 147 145 149 157 169 167 165 169 175 175 173 171 175 181 182 183 189 218 197 199 196 192
102 96 78 68 76 61 71 82 98 102 108 114 118 117 114 113 130 139 148 155 144 134 138 146 153 170 182 169 163 171 178 179 177 179 184 189 192 192 190 189 199 223 221 206
54 96 123 101 74 68 73 82 83 86 91 86 92 107 111 117 124 134 140 133 124 126 141 150 157 184 183 169 167 173 179 186 185 183 187 191 190 190 194 197 199 195 182 204
57 71 82 83 78 77 81 91 93 89 98 96 97 111 117 123 123 124 127 129 132 147 168 169 182 197 184 171 170 175 183 191 187 184 185 186 189 193 197 199 199 197 203 203
97 90 99 93 80 77 78 93 107 95 91 96 111 116 113 115 113 120 133 144 152 158 173 186 191 192 177 171 172 180 184 191 190 189 191 191 190 193 197 197 199 205 214 205
136 159 149 135 120 101 83 79 89 99 110 127 128 111 113 132 156 176 167 134 119 128 207 215 196 186 185 184 182 184 185 188 190 195 198 196 193 192 192 196 201 206 214 203
74 97 114 121 129 118 108 107 102 100 101 110 116 119 132 172 193 186 161 149 151 181 242 233 191 180 187 191 179 182 188 194 198 203 201 194 192 191 196 200 203 203 200 194
93 108 102 92 93 111 124 128 115 100 104 110 104 94 92 249 223 169 141 169 203 207 209 204 193 197 196 190 178 188 199 202 203 200 195 196 198 200 200 200 200 197 197 197
65 69 89 89 80 88 107 119 119 126 183 137 139 159 188 229 208 148 144 211 268 257 222 196 197 206 205 199 194 199 201 201 204 203 197 197 197 198 200 203 204 201 200 199
56 51 59 106 101 70 43 111 143 171 175 166 177 179 183 220 227 197 201 206 225 228 234 228 220 213 207 199 200 203 204 203 204 203 200 195 191 191 195 198 201 202 204 206
100 111 85 140 153 167 24 88 184 208 204 198 199 200 203 212 201 188 239 250 214 198 206 242 243 226 213 206 207 210 212 211 209 205 200 193 190 191 197 200 201 203 203 205
245 226 212 178 142 133 186 251 243 240 231 226 217 204 198 203 238 235 211 207 204 195 210 231 238 236 220 208 206 209 208 205 204 201 192 184 183 187 192 191 191 192 194 193
181 148 130 141 166 204 217 218 209 257 267 258 236 212 208 198 205 211 193 194 192 179 213 220 221 221 204 194 190 193 195 198 192 186 176 171 174 176 179 179 185 187 188 190
55 225 177 193 208 217 218 208 222 237 221 226 247 234 219 202 189 186 184 189 188 184 192 204 193 180 172 168 169 179 190 183 179 172 169 175 180 180 179 181 182 183 189 193
2 18 40 27 338 287 203 196 231 244 221 202 223 236 216 189 172 169 167 171 170 182 188 182 176 171 168 166 158 161 175 171 172 170 170 180 181 185 186 182 177 175 179 177
Height
1477 1473 1473 1474 1475 1477 1486 1494 1503 1499 1495 1488 1484 1484 1487 1490 1494 1498 1502 1505 1508 1511 1514 1518 1521 1524 1526 1529 1531 1533 1535 1536 1537 1538 1539 1540 1541 1541 1541 1542 1542 1542 1541 1541
1475 1469 1469 1472 1470 1471 1476 1481 1485 1486 1488 1478 1480 1483 1486 1489 1492 1496 1500 1503 1506 1509 1513 1516 1519 1521 1524 1526 1529 1531 1533 1534 1536 1537 1538 1538 1539 1540 1540 1540 1541 1541 1541 1540
1486 1475 1473 1482 1472 1470 1473 1473 1477 1487 1483 1478 1481 1482 1484 1487 1490 1493 1498 1501 1503 1507 1510 1513 1516 1519 1521 1523 1526 1528 1530 1532 1534 1535 1536 1537 1538 1538 1539 1539 1540 1540 1540 1539
1489 1485 1496 1480 1461 1460 1465 1468 1468 1471 1473 1475 1477 1480 1482 1484 1487 1491 1495 1498 1501 1505 1508 1511 1514 1517 1520 1522 1524 1526 1528 1530 1531 1533 1533 1535 1536 1536 1537 1538 1539 1539 1539 1538
1493 1495 1488 1471 1461 1461 1467 1472 1466 1467 1472 1476 1479 1483 1486 1486 1487 1489 1492 1495 1498 1502 1505 1508 1511 1515 1517 1519 1521 1523 1525 1526 1528 1530 1531 1532 1533 1534 1535 1536 1536 1536 1537 1537
1489 1493 1496 1478 1460 1456 1462 1476 1466 1465 1470 1475 1477 1488 1488 1485 1486 1488 1491 1493 1497 1500 1504 1507 1510 1512 1515 1517 1519 1520 1522 1524 1526 1527 1528 1530 1531 1532 1533 1534 1534 1535 1536 1536
1487 1489 1482 1465 1457 1456 1478 1479 1466 1464 1467 1471 1473 1477 1479 1482 1484 1487 1490 1492 1495 1498 1501 1504 1507 1510 1512 1514 1516 1518 1520 1522 1523 1525 1527 1528 1529 1530 1531 1532 1533 1533 1534 1535
1485 1489 1485 1459 1457 1464 1466 1461 1462 1463 1466 1469 1471 1474 1477 1479 1482 1485 1488 1491 1494 1496 1499 1503 1505 1507 1509 1511 1513 1516 1518 1519 1521 1522 1524 1526 1527 1528 1529 1530 1530 1531 1532 1532
1473 1475 1462 1457 1456 1456 1457 1460 1461 1463 1465 1468 1471 1473 1476 1478 1481 1484 1488 1491 1493 1495 1498 1501 1503 1505 1507 1508 1511 1512 1515 1516 1518 1520 1521 1523 1524 1525 1526 1527 1528 1528 1529 1529
1466 1464 1460 1458 1457 1457 1458 1459 1461 1462 1465 1468 1470 1473 1476 1478 1481 1484 1487 1490 1491 1493 1496 1498 1501 1503 1505 1506 1508 1510 1511 1513 1515 1517 1518 1520 1521 1523 1524 1524 1525 1526 1526 1527
1466 1464 1461 1460 1460 1460 1461 1461 1462 1464 1466 1468 1469 1472 1475 1478 1481 1483 1486 1488 1490 1492 1494 1496 1499 1501 1503 1504 1506 1507 1509 1510 1512 1514 1515 1517 1518 1520 1520 1521 1522 1523 1523 1524
1467 1463 1464 1464 1463 1463 1463 1464 1464 1465 1468 1470 1471 1473 1476 1478 1481 1483 1485 1487 1489 1490 1492 1494 1497 1499 1501 1502 1504 1505 1506 1507 1508 1510 1512 1514 1515 1516 1517 1519 1520 1520 1521 1522
1460 1461 1462 1463 1464 1464 1465 1465 1466 1467 1468 1471 1473 1475 1477 1478 1480 1482 1484 1485 1487 1489 1490 1492 1495 1496 1498 1500 1501 1502 1503 1504 1506 1507 1509 1510 1512 1513 1514 1515 1516 1517 1518 1518
1460 1460 1462 1463 1464 1465 1466 1467 1468 1469 1471 1472 1474 1475 1477 1479 1481 1482 1483 1485 1486 1488 1490 1491 1493 1495 1496 1497 1498 1499 1501 1502 1503 1504 1505 1507 1508 1509 1510 1511 1512 1512 1514 1515
1460 1460 1462 1463 1464 1465 1467 1467 1468 1469 1471 1473 1474 1475 1476 1478 1480 1481 1483 1485 1486 1487 1489 1490 1491 1492 1494 1495 1496 1497 1498 1499 1500 1501 1502 1503 1505 1506 1507 1508 1508 1509 1510 1511
1461 1461 1462 1463 1465 1466 1467 1468 1469 1470 1471 1473 1474 1475 1476 1478 1479 1481 1482 1483 1484 1486 1487 1488 1489 1490 1491 1492 1493 1494 1495 1496 1497 1498 1499 1500 1500 1501 1502 1503 1504 1505 1506 1507
1461 1462 1463 1464 1466 1466 1468 1469 1470 1471 1472 1474 1474 1475 1476 1477 1478 1480 1481 1482 1483 1483 1485 1487 1486 1488 1488 1489 1490 1490 1491 1492 1494 1495 1495 1496 1496 1497 1498 1499 1500 1500 1502 1503
1462 1463 1464 1465 1466 1467 1468 1469 1470 1471 1472 1473 1474 1474 1476 1477 1477 1478 1479 1480 1481 1482 1483 1483 1483 1484 1485 1486 1486 1487 1488 1489 1490 1491 1491 1492 1492 1493 1494 1495 1496 1497 1497 1498
1461 1462 1463 1464 1465 1467 1468 1470 1470 1471 1472 1473 1474 1474 1474 1476 1477 1477 1477 1477 1478 1479 1481 1481 1481 1481 1482 1482 1483 1484 1485 1485 1486 1487 1488 1488 1489 1489 1490 1490 1491 1492 1493 1493
1461 1462 1463 1464 1465 1466 1468 1469 1470 1471 1472 1472 1473 1472 1473 1475 1476 1476 1476 1476 1476 1477 1477 1479 1479 1478 1479 1479 1480 1480 1481 1482 1483 1483 1484 1485 1485 1486 1486 1487 1487 1488 1488 1489
1460 1461 1462 1463 1464 1465 1466 1467 1468 1469 1470 1470 1470 1471 1472 1473 1474 1474 1474 1474 1474 1475 1475 1476 1476 1475 1476 1476 1476 1477 1477 1478 1479 1479 1480 1481 1481 1482 1482 1483 1483 1483 1484 1484
1459 1460 1461 1462 1462 1463 1464 1465 1465 1466 1467 1467 1468 1469 1470 1470 1471 1471 1471 1471 1472 1472 1472 1472 1472 1472 1472 1472 1472 1473 1473 1474 1474 1475 1476 1476 1477 1477 1478 1478 1478 1479 1479 1480
1458 1459 1460 1460 1460 1460 1461 1462 1463 1463 1463 1464 1465 1465 1466 1467 1467 1467 1467 1468 1468 1469 1469 1468 1468 1468 1468 1468 1468 1469 1469 1470 1470 1471 1471 1472 1472 1472 1473 1474 1474 1475 1475 1476
1457 1457 1458 1458 1458 1459 1459 1460 1461 1461 1461 1460 1461 1462 1463 1463 1463 1464 1464 1464 1465 1465 1465 1465 1465 1465 1464 1465 1465 1465 1466 1466 1466 1467 1467 1467 1468 1469 1469 1470 1470 1471 1471 1471
1455 1455 1455 1456 1456 1456 1457 1458 1458 1458 1458 1458 1458 1458 1459 1459 1459 1459 1460 1460 1461 1461 1461 1461 1461 1461 1461 1461 1461 1462 1462 1462 1462 1463 1463 1464 1465 1465 1466 1466 1466 1467 1467 1468
1454 1454 1454 1454 1455 1455 1456 1456 1456 1455 1455 1454 1455 1455 1455 1455 1456 1456 1456 1457 1457 1457 1457 1458 1458 1458 1458 1458 1458 1459 1459 1459 1460 1460 1460 1461 1462 1462 1462 1463 1463 1464 1464 1464
1453 1453 1453 1453 1454 1454 1454 1454 1454 1453 1452 1452 1452 1452 1452 1452 1453 1453 1454 1454 1455 1455 1455 1455 1455 1455 1455 1455 1456 1456 1456 1456 1457 1457 1457 1458 1458 1459 1459 1460 1460 1461 1461 1461